Location: Most
(50.5133°N, 13.6207°E)
Time: 22:19:39
(UTC+02:00)

ISS - Pass Details

Date: 23 September 2024
Orbit: 412 x 424 km, 51.6° (Epoch: 09 October)

Event Time Altitude Azimuth Distance (km) Brightness Sun altitude
Rises 21:21:17 0° 286° (WNW) 2,376 1.4 -22.3°
Reaches altitude 10° 21:23:25 10° 281° (WNW) 1,513 0.1 -22.6°
Enters shadow 21:25:54 39° 251° (WSW) 652 -2.6 -23.0°
